Regional Weather Roundup
Issued by NWS

Home | Current Version | Previous Version | Text Only | Print | Product List | Glossary On
Versions: 1 2 3 4 5 6 7 8 9 10 11 12 13 14 15 16 17 18 19 20 21 22 23 24 25 26 27 28
000
ASUS45 KSLC 230610
RWRUT

UTAH REGIONAL WEATHER ROUNDUP
NATIONAL WEATHER SERVICE SALT LAKE CITY UT
1200 AM MDT MON APR 23 2018

UTZ001>011-023>025-230700-

NORTHERN UTAH

CITY           SKY/WX    TMP DP  RH WIND       PRES   REMARKS
BRIGHAM CITY   MOCLDY    53  39  59 NW7       29.91F
HILL AFB       PTCLDY    60  28  30 E5        29.93F
LOGAN          CLOUDY    56  38  50 CALM      29.92F
OGDEN          PTCLDY    58  29  33 MISG      29.90F
SALT LAKE CITY PTCLDY    61  33  35 SE9       29.91F
TOOELE VALLEY  PTCLDY    59  32  36 S12       29.91F
WENDOVER       MOCLDY    65  35  33 W6        29.93R
HEBER CITY       N/A     41  30  65 CALM      30.01S
WEST JORDAN    PTCLDY    58  34  40 S8        29.94F

$$

UTZ011>015-024>027-230700-

CENTRAL/NORTHEAST UTAH

CITY           SKY/WX    TMP DP  RH WIND       PRES   REMARKS
PROVO AIRPORT  PTCLDY    55  33  43 S6        29.96F
MOAB/CANYONLAN PTCLDY    53  27  36 CALM      29.97S
DELTA          PTCLDY    55  32  41 S8        29.95F
PRICE          PTCLDY    57  24  28 E9        30.04S
RICHFIELD      CLEAR     46  27  46 SW2       30.03S
ROOSEVELT      PTCLDY    50  32  50 SW6       30.02S
VERNAL         PTCLDY    50  33  52 CALM      30.01F

$$

UTZ013>016-019>022-027-230700-

SOUTHERN UTAH

CITY           SKY/WX    TMP DP  RH WIND       PRES   REMARKS
BRYCE CANYON   CLEAR     38  23  55 W10       30.17S WCI  31
CEDAR CITY     CLEAR     52  28  39 SE8       30.04S
MILFORD        PTCLDY    59  28  30 S14       29.99S
ST GEORGE      PTCLDY    66  24  20 SE7       29.91S
HANKSVILLE     MOCLDY    57  21  24 E3        30.00F
KANAB          CLEAR     52  23  32 NE1       30.08R
BLANDING         N/A     50  22  33 N10       30.14S

$$

REGIONAL REPORTS     COLORADO/ARIZONA

CITY           SKY/WX    TMP DP  RH WIND       PRES   REMARKS
CRAIG, CO      PTCLDY    42  35  76 CALM      30.08S
GRAND JUNCTION PTCLDY    54  28  36 E6        30.01S
RIFLE, CO      MOCLDY    50  38  63 SE6       30.07R
MONTROSE, CO   PTCLDY    50  33  52 SE9       30.09S
CORTEZ, CO     CLEAR     43  23  45 N3        30.10R
COLORADO CITY    N/A     46  28  49 SE3       30.06R
PAGE, AZ       CLEAR     68  22  17 S6        29.98R
GRAND CANYON   PTCLDY    42  18  37 CALM      30.14R
KINGMAN, AZ    CLEAR     64  20  18 SW7       29.98R
FLAGSTAFF, AZ  CLEAR     39  17  41 W3        30.19S

$$

REGIONAL REPORTS    NEVADA/IDAHO/WYOMING

CITY           SKY/WX    TMP DP  RH WIND       PRES   REMARKS
LAS VEGAS, NV  CLEAR     77  19  11 SW6       29.86S
ELY, NY        PTCLDY    46  24  42 S9        30.03F
ELKO, NV       MOCLDY    53  33  46 VRB3      30.05R
POCATELLO, ID  CLOUDY    52  33  48 SW16      30.06R
BURLEY, ID     LGT RAIN  47  39  74 S14G22    30.05R
FORT BRIDGER,    N/A     47  22  37 SW12      30.09F
EVANSTON, WY   CLEAR     48  24  39 SE8       30.07F
ROCK SPRINGS,  PTCLDY    51  25  36 SW7       30.06S
KEMMERER, WY   CLEAR     41  27  56 N3        30.08S

$$




USA.gov is the U.S. government's official web portal to all federal, state and local government web resources and services.